RH
3 3 3 3 3 4 4 4 5 6 7 8 9 9 10 10 9 9 8 9 10 11 14 17 21 23 25 26 26 26 24 21 16 13 13 10 6 6 8 10 8 8 6 4 3 5 9 10 10 9 11 13 14 15 23 46 61 54 53 61 61 64 67 66 67 67 65 61 58 63 67 65 69 78 78 73 75 83 84 79 76 77 78 78 72 62 57 59
2 2 2 2 2 2 2 3 3 3 4 4 5 6 8 9 10 10 9 9 9 9 10 12 15 18 22 24 26 26 25 24 18 15 16 11 5 5 7 9 8 7 6 4 3 4 6 9 9 9 12 13 14 17 24 40 49 44 46 55 59 63 66 66 67 66 64 61 57 58 61 60 66 72 66 63 70 80 81 75 75 78 77 74 71 65 59 59
2 2 2 2 2 2 2 2 2 2 2 3 3 3 4 5 7 8 10 10 10 9 9 9 11 13 16 21 24 25 26 24 21 19 18 12 7 5 5 7 7 6 6 5 3 3 4 6 7 8 10 11 14 17 27 40 42 41 47 53 58 63 65 64 64 65 64 62 57 57 60 62 68 69 61 61 72 77 69 62 65 68 68 67 67 66 60 59
2 2 2 2 1 2 2 2 2 2 2 2 2 2 2 3 4 5 6 8 10 10 9 9 9 9 11 15 20 23 25 24 23 21 18 14 11 7 5 6 7 6 7 6 4 3 4 5 6 7 8 8 13 17 27 39 42 42 44 51 59 61 64 64 63 66 67 63 58 57 58 61 67 69 67 69 73 69 58 57 60 61 60 55 58 64 60 57
2 2 1 1 2 1 1 2 1 1 2 1 2 2 2 2 2 3 3 5 7 9 10 10 9 8 9 10 14 19 22 23 23 22 18 16 14 10 6 6 7 7 7 7 5 3 3 5 5 6 7 7 11 16 23 33 40 42 41 51 60 58 62 65 64 66 67 65 61 57 56 61 65 68 71 69 65 62 58 59 59 62 63 51 47 56 58 57
2 2 2 2 1 2 1 2 1 1 1 1 2 1 2 2 2 2 2 3 3 5 8 9 10 9 8 8 10 13 17 20 24 24 19 14 13 11 7 5 7 7 8 8 6 4 3 4 5 6 7 7 9 13 21 31 37 37 39 51 57 55 60 63 64 65 67 65 61 58 60 65 62 61 67 62 62 68 66 64 59 62 68 58 49 50 52 53
2 2 2 2 2 2 2 2 2 2 2 2 2 1 1 1 2 2 2 2 2 3 4 6 9 10 10 8 8 10 12 16 23 25 22 18 15 12 8 5 7 8 8 9 7 5 3 3 4 6 6 7 8 11 22 36 37 32 37 49 53 54 57 60 63 65 66 64 60 59 62 65 59 58 62 58 67 76 72 69 66 64 67 64 57 52 50 51
2 2 2 2 2 2 2 2 2 2 2 2 2 2 2 1 1 1 1 2 2 2 2 3 5 8 10 10 8 8 9 12 18 23 25 25 21 16 10 6 6 7 8 8 6 4 3 3 3 5 6 6 9 10 19 41 43 30 34 47 53 54 55 59 62 64 66 64 60 58 59 60 57 61 61 58 71 79 73 72 70 65 64 63 61 58 54 53
2 2 2 2 2 2 2 2 3 3 3 3 3 2 2 2 2 2 1 1 1 2 2 2 3 5 7 9 10 8 8 10 16 22 25 26 23 18 13 8 6 7 8 8 8 7 4 3 3 4 6 6 9 9 15 38 42 27 30 46 54 54 55 58 59 61 65 65 60 55 56 57 58 66 68 65 75 80 74 72 72 69 65 60 59 61 58 54
3 3 2 2 2 2 3 3 3 3 3 3 4 4 3 3 2 2 2 1 1 1 1 2 2 3 4 6 9 8 8 10 13 20 24 25 23 19 14 10 7 7 8 9 9 8 5 4 3 3 5 5 7 9 13 27 33 26 29 44 54 54 54 56 56 57 60 64 61 54 53 55 59 67 70 69 73 76 74 72 71 71 68 60 53 55 59 57
3 3 3 3 2 2 3 3 3 3 4 4 4 5 4 4 3 3 2 2 2 2 1 1 2 2 2 4 6 7 8 8 9 17 24 25 23 18 14 11 9 8 9 10 10 9 8 6 4 3 4 5 6 9 12 18 27 30 33 42 51 53 53 54 56 55 57 61 61 56 53 55 61 63 63 66 67 69 71 69 68 69 69 63 50 48 55 57
3 3 3 3 3 4 3 4 4 5 5 5 5 5 5 4 3 3 3 2 2 2 2 1 1 1 2 3 4 6 9 9 8 15 23 25 23 19 15 11 11 11 10 11 11 10 11 8 5 4 4 6 7 9 13 18 28 35 42 47 47 51 52 51 54 53 55 60 59 58 57 58 61 58 57 62 63 64 66 64 66 68 67 64 52 46 48 53
4 4 5 5 5 5 4 4 5 6 6 6 5 5 5 4 3 3 2 2 2 2 2 2 1 1 2 3 3 4 7 9 10 15 21 25 24 20 17 13 10 12 12 12 12 11 11 8 5 3 5 9 9 13 19 24 35 43 52 54 48 52 52 47 51 50 49 56 59 59 60 60 60 58 58 60 62 63 63 60 62 65 66 62 52 46 44 47
5 5 5 5 5 6 5 5 5 6 6 6 5 5 4 3 3 3 2 2 2 2 2 2 2 1 1 2 2 3 6 6 11 21 25 25 25 22 20 18 13 11 12 14 15 14 11 7 6 4 6 12 12 21 31 34 43 51 56 58 56 57 49 42 49 47 43 51 58 58 57 57 56 58 59 58 59 59 57 56 58 62 64 58 47 45 43 41
6 6 6 5 5 6 6 6 6 6 6 5 5 5 4 3 3 3 3 2 3 2 3 2 2 2 1 2 1 2 4 5 11 23 27 26 27 24 24 26 20 12 11 14 16 16 13 7 6 5 5 15 22 31 42 45 49 54 54 56 58 58 47 41 46 45 41 46 57 58 53 51 51 55 58 56 56 55 52 52 54 58 62 54 41 43 44 38
5 5 6 5 5 7 7 7 8 7 6 5 5 5 4 3 4 4 3 3 3 3 3 2 2 2 2 3 4 3 3 3 8 15 19 23 28 28 28 29 25 15 12 15 17 18 15 8 6 6 10 25 37 40 46 51 53 54 52 51 52 53 48 43 43 43 40 41 52 56 52 50 48 51 56 55 54 53 51 51 51 54 59 51 36 39 44 40
5 5 5 5 5 7 8 8 8 7 6 5 5 5 4 4 4 4 4 3 4 3 3 3 3 2 2 3 6 10 9 4 4 8 9 12 21 31 32 31 27 18 13 15 19 20 17 10 8 12 22 36 44 47 50 53 53 52 51 49 48 47 46 44 42 41 39 36 45 53 53 51 47 48 54 54 53 54 53 51 49 51 57 48 34 35 40 40
4 4 4 5 6 7 8 9 9 8 6 5 5 5 5 5 4 5 4 4 4 3 3 3 3 3 5 6 8 14 15 9 5 5 6 5 12 28 34 32 27 17 13 17 19 20 18 13 11 18 34 44 46 51 52 51 50 50 50 49 47 45 43 43 40 38 37 34 41 52 52 50 48 48 50 50 52 54 53 51 47 50 55 49 39 34 34 37
3 4 4 5 7 8 9 10 10 9 7 6 6 6 6 5 5 5 4 5 5 4 7 10 10 8 9 8 8 11 13 11 9 7 7 5 8 26 35 30 23 16 15 17 17 19 19 15 15 23 35 38 39 49 52 49 49 48 49 48 46 45 42 41 39 37 35 35 41 52 52 48 50 50 48 48 50 53 52 48 47 50 54 54 48 40 33 32
4 5 5 6 9 10 10 11 11 11 9 7 7 7 6 5 5 4 4 7 7 10 18 21 20 17 13 7 4 8 12 12 11 10 10 6 9 27 37 31 24 20 17 16 16 18 19 19 21 21 21 22 29 46 55 53 50 46 45 45 44 43 42 39 37 35 33 34 38 46 51 49 49 50 48 48 49 52 52 48 47 48 51 54 52 47 38 30
6 7 6 7 11 12 12 12 13 12 11 10 8 8 7 6 6 4 4 6 11 22 29 29 27 24 20 14 7 6 10 14 13 15 15 10 13 28 37 34 31 26 18 16 18 19 20 23 23 18 19 27 36 47 55 55 52 47 42 40 41 41 40 37 33 33 32 32 35 39 46 49 50 51 50 49 49 48 47 45 45 45 47 50 51 50 42 32
6 7 6 7 11 13 13 13 14 14 13 12 10 9 8 8 7 7 6 4 14 31 34 32 32 28 23 20 16 9 7 10 14 21 25 18 20 31 37 37 35 29 20 20 24 23 23 22 17 20 33 44 49 51 55 56 53 49 44 39 37 38 39 35 32 32 31 31 33 35 37 41 45 47 48 48 46 44 42 40 42 44 44 45 47 49 44 37
6 6 5 7 10 14 14 14 15 14 14 13 11 10 8 9 8 6 7 4 14 33 37 34 34 30 24 20 20 17 10 7 11 26 36 30 28 35 38 38 37 33 27 27 27 25 24 19 14 25 43 50 52 55 54 53 52 50 46 41 37 37 36 34 31 32 32 31 32 33 33 35 36 39 43 44 43 41 41 40 40 42 42 40 41 45 46 43
5 5 5 5 8 14 15 15 16 15 15 14 11 11 9 9 8 6 8 5 12 30 36 36 34 30 27 25 25 22 17 11 9 25 41 40 38 40 40 38 39 38 33 31 30 26 21 17 16 25 40 49 52 53 53 51 50 48 45 42 38 36 35 33 31 32 32 32 31 30 30 31 32 35 39 41 43 43 42 41 41 42 41 41 41 44 47 47
4 5 5 4 7 12 14 16 17 16 16 14 11 11 9 9 8 7 8 6 11 26 32 32 32 30 28 30 31 26 21 16 11 20 34 41 44 43 41 40 41 40 36 34 35 32 22 19 23 23 30 46 51 50 51 48 46 46 44 41 38 35 34 32 30 31 31 31 30 27 30 30 28 33 36 38 42 44 44 42 40 40 41 43 45 45 47 49
5 5 5 5 6 10 14 17 18 17 17 14 12 11 9 9 8 8 11 11 15 21 24 26 28 29 28 29 33 27 19 17 17 20 25 34 44 44 41 41 42 42 39 38 39 37 27 23 28 27 26 39 50 50 47 44 46 43 36 36 38 35 33 32 30 31 30 29 29 27 30 30 25 28 34 35 38 40 42 44 41 39 40 41 43 44 45 47
6 6 6 6 7 11 15 18 19 19 17 15 14 11 10 10 8 12 14 18 26 22 16 19 23 27 28 29 33 29 23 21 20 22 22 29 42 44 41 41 42 42 40 40 40 38 32 28 31 33 30 35 45 46 39 41 45 37 29 33 37 34 31 31 30 32 30 29 30 28 28 29 26 25 27 33 38 39 40 42 40 39 41 39 39 41 43 44
8 7 8 8 10 15 18 21 22 22 20 18 15 12 12 10 10 15 14 22 37 28 15 17 19 22 23 27 32 30 30 29 22 22 22 27 37 42 41 41 41 40 38 38 39 36 34 32 31 32 34 35 35 28 26 39 45 35 31 32 31 31 31 30 30 32 30 29 30 28 28 31 30 25 24 30 38 41 40 39 37 38 40 39 38 39 40 41
9 9 10 11 16 21 24 24 24 24 22 18 16 13 12 11 13 18 20 29 37 27 20 21 17 16 19 24 31 32 32 32 29 28 26 26 33 38 40 41 41 40 38 36 36 36 34 33 33 31 31 34 33 26 25 37 43 38 38 34 28 28 28 28 31 30 29 31 31 28 28 32 32 27 25 32 38 38 36 35 34 35 36 36 37 38 39 39
10 10 12 17 22 26 28 27 25 23 20 17 16 13 12 14 15 20 26 31 30 25 25 22 15 15 18 20 27 31 31 30 31 31 29 27 31 36 38 39 40 39 37 35 34 35 36 35 36 33 27 25 30 34 33 32 35 40 42 38 33 31 28 29 29 27 29 33 31 27 27 30 33 28 25 31 35 32 30 32 33 34 35 35 36 37 38 38
10 11 16 22 27 29 29 27 24 22 20 18 16 15 17 17 18 30 37 30 25 27 26 22 18 15 19 24 25 28 31 28 30 32 29 29 30 30 32 32 35 36 33 33 32 33 37 40 41 39 34 28 27 32 36 33 31 38 43 40 38 34 31 32 30 29 35 36 29 25 26 28 31 30 25 24 28 30 28 28 32 33 32 33 35 36 38 37
11 13 18 25 29 31 32 31 29 27 26 23 20 22 21 17 25 40 40 28 27 32 29 29 26 17 24 36 29 24 28 26 28 33 32 37 41 41 41 40 39 38 32 30 31 31 35 39 43 44 42 39 34 29 34 37 34 38 43 41 40 38 35 39 37 34 37 36 28 24 24 26 28 26 23 21 23 29 29 26 27 29 28 29 32 34 36 37
12 15 20 24 29 36 39 38 35 34 32 27 26 27 22 25 40 44 35 30 33 34 33 35 32 23 29 44 36 22 24 25 27 33 33 38 48 52 52 49 43 40 36 30 28 29 31 35 39 43 44 44 41 34 33 37 38 39 41 40 40 42 44 47 44 36 34 32 27 25 25 26 25 21 21 20 20 24 27 27 25 25 25 25 26 29 34 36
13 17 21 24 32 40 44 44 40 37 36 31 29 29 27 36 49 44 36 37 37 35 36 36 33 27 29 43 45 32 27 27 26 29 31 33 46 54 52 48 44 42 39 33 29 29 30 32 34 39 44 45 43 40 35 33 36 38 38 39 39 38 41 45 42 36 33 29 24 24 27 25 23 21 19 18 18 19 22 28 28 25 25 25 24 28 32 33
13 19 22 27 36 41 45 48 44 40 38 34 34 35 38 45 47 40 39 40 36 35 38 36 33 33 30 36 49 49 39 32 27 26 29 32 44 55 54 53 53 47 42 39 37 33 29 27 29 34 40 44 43 42 40 36 35 37 37 38 40 37 35 34 31 28 25 25 25 24 24 22 19 20 19 16 17 16 17 25 30 29 29 30 30 31 32 31
15 20 23 31 40 42 46 51 50 47 43 38 39 42 45 50 46 39 39 39 36 37 39 36 35 42 39 34 48 58 45 33 30 29 28 30 40 50 51 54 58 55 49 47 49 51 45 33 26 29 33 39 41 40 41 40 35 36 37 38 40 40 36 30 27 23 21 24 26 21 19 18 16 16 17 15 16 15 14 21 29 30 30 34 36 34 32 30
17 22 27 35 40 39 44 51 54 53 47 41 42 44 46 48 44 40 40 39 39 40 40 39 42 47 45 40 48 57 46 33 31 32 29 29 36 45 48 48 55 59 55 50 55 65 67 49 29 27 29 31 36 37 38 39 36 33 35 37 38 38 36 31 28 26 25 27 26 20 17 16 15 15 15 15 15 14 14 16 23 29 31 33 33 31 29 28
20 25 29 34 38 41 45 51 56 54 47 42 42 44 45 44 43 44 44 42 42 42 40 43 47 47 45 43 46 51 50 43 38 37 36 36 38 42 45 44 49 58 55 51 55 60 68 63 36 23 27 27 30 35 35 36 36 33 32 32 33 34 32 30 30 29 28 30 26 19 17 15 13 14 14 14 14 13 13 14 16 23 28 29 28 27 26 26
25 31 34 38 45 52 52 53 56 53 46 43 43 45 44 42 44 48 47 46 46 44 44 47 49 47 42 39 44 53 58 56 54 54 52 47 42 41 44 44 46 53 50 48 54 55 67 78 54 25 25 26 26 33 34 33 34 33 32 29 27 29 29 27 28 26 26 34 30 19 18 17 14 14 13 13 14 14 14 13 13 17 21 24 24 23 24 25
32 40 45 50 54 56 52 51 55 53 45 44 46 46 45 47 50 48 48 49 47 46 48 49 49 48 41 37 46 57 61 63 68 67 59 55 53 49 50 49 45 49 47 45 54 56 63 80 67 34 24 26 25 29 33 33 33 32 31 28 24 25 26 24 25 22 22 34 37 26 20 17 13 13 14 12 13 13 13 13 13 14 15 17 19 19 20 22
39 49 55 56 56 53 49 49 54 53 45 45 49 48 47 53 53 48 49 52 50 49 50 49 48 47 44 44 49 56 63 69 69 64 61 67 72 64 54 47 42 45 46 45 52 57 64 80 74 47 32 28 23 24 29 31 30 29 29 27 25 24 22 23 26 24 19 23 28 25 21 16 12 12 12 11 11 11 12 13 13 13 14 14 17 19 19 20
46 58 65 63 58 54 51 51 54 53 48 47 52 52 51 56 56 52 52 54 53 52 50 50 48 46 50 53 51 57 69 71 64 61 67 73 72 64 54 48 45 46 48 48 52 60 71 84 79 56 39 31 22 20 25 29 28 27 27 25 24 23 21 23 27 25 20 19 18 18 19 16 11 12 11 10 10 9 9 11 12 13 14 14 17 20 20 19
52 64 73 69 62 58 57 56 54 53 51 51 56 59 58 60 59 58 57 57 58 58 54 54 54 52 58 60 55 58 67 71 69 67 66 63 59 58 58 57 52 49 51 53 56 63 74 80 72 54 38 27 21 21 22 25 27 27 26 23 22 22 20 21 23 21 19 19 18 18 21 16 8 9 12 11 11 11 10 10 11 12 13 13 15 17 18 17
59 68 75 73 66 63 62 62 61 57 55 54 56 60 62 64 65 64 63 63 66 65 62 63 62 62 67 70 67 63 64 71 74 67 58 54 54 58 64 69 65 57 55 57 62 74 83 80 69 65 56 34 21 23 23 24 27 27 26 24 21 21 21 20 21 20 19 19 18 20 23 16 7 6 10 13 13 14 12 11 11 11 11 12 13 13 13 15
66 71 76 75 72 69 66 68 72 70 63 59 60 65 68 69 72 70 67 67 71 69 65 66 67 70 75 77 75 68 63 68 73 73 67 62 61 63 69 76 73 63 56 58 72 89 92 79 69 76 80 60 39 37 40 41 37 28 24 24 22 20 20 20 19 19 20 20 17 18 20 16 9 6 8 13 13 12 12 12 12 13 11 10 12 13 11 12
72 76 78 78 75 73 71 73 80 84 79 69 67 74 78 77 76 74 69 68 70 69 66 66 69 75 80 79 76 70 65 68 75 79 77 73 72 71 70 74 73 66 62 68 83 95 89 73 66 72 77 69 55 50 52 54 48 35 28 26 24 22 20 19 19 18 19 19 17 16 18 18 13 8 9 13 14 12 11 11 12 13 12 9 10 12 11 10
77 81 84 84 82 79 74 70 75 86 90 83 75 76 83 85 81 77 73 70 71 71 68 69 72 77 80 80 80 75 68 68 69 70 72 74 76 73 68 70 74 73 73 77 83 88 83 70 64 68 70 66 60 51 46 49 47 40 35 30 26 24 21 18 19 18 17 18 19 16 16 17 14 9 9 11 12 12 11 11 12 12 11 9 8 9 9 7
82 86 87 90 91 89 82 73 71 81 89 89 85 83 87 90 87 81 75 70 73 77 73 70 70 74 77 79 82 80 76 71 65 63 68 72 73 72 65 64 73 78 76 76 79 84 84 72 63 68 68 60 55 48 43 46 46 42 43 40 32 28 25 20 18 18 17 17 18 16 14 15 12 8 8 9 9 10 10 11 12 11 11 10 9 9 8 8
86 88 87 87 93 95 91 81 77 81 86 88 91 92 90 90 89 88 85 77 72 76 80 79 75 74 76 79 82 81 79 77 70 65 68 71 73 75 71 65 73 81 79 76 78 84 86 73 63 68 64 51 48 48 50 56 53 50 56 53 38 30 27 22 18 17 18 16 16 16 14 14 12 10 9 10 10 11 12 12 12 11 11 10 9 9 9 9
89 90 89 87 88 92 93 86 80 85 90 89 91 93 92 91 89 87 90 90 81 79 85 88 84 79 76 78 81 80 78 79 77 73 75 78 76 78 80 70 66 75 80 80 81 86 86 73 64 68 62 48 46 49 52 57 55 58 63 49 32 27 25 20 18 16 17 16 15 15 14 13 12 11 11 12 11 11 12 12 12 11 10 10 9 9 9 10
91 91 95 91 85 89 97 93 87 89 94 92 89 87 86 89 91 84 83 89 92 92 93 90 86 81 76 77 80 78 75 74 72 73 78 81 79 79 81 71 63 70 79 84 87 88 85 75 66 71 69 53 45 47 48 49 50 59 63 47 30 27 23 19 18 17 16 16 15 14 14 14 13 12 12 12 12 12 12 11 11 10 10 9 9 9 9 10
93 92 99 97 87 88 97 99 95 94 98 97 93 88 85 86 92 92 90 90 92 97 100 93 88 83 79 82 82 73 68 65 65 69 70 70 72 75 75 69 68 74 78 82 85 84 84 80 70 75 77 59 45 47 46 48 54 65 75 71 55 42 31 23 22 20 16 16 16 18 19 17 16 14 13 13 12 12 13 12 10 11 10 10 9 10 11 11
Wind_Speed
17 17 17 18 18 18 18 19 19 19 19 18 18 18 18 18 18 17 16 16 16 16 15 14 14 15 16 16 13 12 12 12 13 10 8 10 15 22 25 25 24 23 23 25 29 31 31 29 27 26 25 23 20 17 16 14 14 15 11 11 12 10 8 7 6 5 3 2 3 7 9 10 12 14 13 12 13 10 11 12 11 15 15 13 14 18 23 27
17 18 18 18 18 19 19 19 19 19 19 19 19 19 19 19 19 18 18 17 17 17 16 16 14 14 15 16 15 13 12 12 12 7 7 12 14 19 24 27 25 23 23 24 26 29 29 28 27 28 26 24 21 19 19 17 17 15 11 11 13 11 10 8 6 5 3 2 3 5 6 8 9 11 11 10 13 13 15 15 15 19 17 14 18 22 25 28
18 18 19 19 19 19 20 20 20 20 20 20 19 19 19 19 20 20 19 18 17 17 17 17 16 14 14 16 16 15 13 13 11 7 10 13 12 15 21 27 26 22 21 20 21 25 26 25 25 27 26 24 22 21 20 19 18 14 12 12 14 11 9 8 9 7 3 2 4 4 6 9 9 11 10 9 12 14 15 13 12 15 17 18 20 24 26 28
19 19 19 19 20 20 20 20 21 21 21 20 20 20 20 20 20 20 20 19 18 18 19 18 17 16 14 15 16 16 15 13 12 10 12 12 12 14 16 24 26 22 20 20 21 23 25 26 26 26 26 25 23 23 23 21 19 15 12 11 14 11 9 7 8 7 3 1 3 5 7 10 10 10 11 11 13 12 9 9 8 6 13 17 18 24 27 27
18 18 18 19 19 19 19 20 20 21 21 21 21 21 21 21 20 20 20 20 19 19 19 19 19 17 15 15 15 15 15 11 10 8 8 9 12 15 14 18 23 22 21 22 23 25 28 30 29 28 28 26 25 26 24 21 19 17 12 11 12 11 11 8 6 5 4 5 4 5 5 8 10 10 11 11 8 2 4 4 9 5 10 13 11 20 26 26
17 17 18 18 18 18 18 19 19 20 20 20 21 21 21 21 21 21 21 21 20 19 19 20 20 19 17 16 15 15 13 9 8 7 6 7 10 13 14 15 19 22 23 23 24 26 29 32 33 33 31 28 27 27 23 21 20 18 14 14 14 11 12 10 7 4 6 9 7 4 4 8 10 7 10 8 0 4 6 2 6 5 10 13 10 16 21 22
17 17 17 17 17 17 17 18 18 19 19 20 20 21 21 21 21 21 21 21 20 20 20 20 20 20 19 18 16 15 13 12 14 13 9 8 10 11 12 15 19 23 25 26 26 27 29 33 35 34 33 31 30 27 22 21 22 20 17 17 15 12 12 11 7 5 8 9 7 6 7 11 11 6 7 4 0 7 6 2 5 6 11 15 13 15 17 18
17 16 16 16 16 17 17 17 18 19 19 20 20 20 21 21 21 21 21 21 21 21 20 20 20 20 20 19 18 16 14 14 15 15 11 11 13 12 11 14 19 23 25 26 26 26 27 32 34 34 34 32 31 28 24 23 24 23 19 17 14 12 13 10 8 7 10 10 9 9 9 10 10 7 7 4 6 13 10 6 7 8 10 13 14 15 17 18
17 16 16 16 15 16 17 17 18 19 19 20 21 21 21 21 21 21 21 21 21 21 21 22 21 20 20 20 20 17 16 15 14 13 13 12 13 14 13 14 18 21 24 25 24 24 26 29 31 33 33 31 30 28 25 26 27 23 18 16 14 13 12 9 9 9 11 14 14 13 11 10 9 9 11 8 11 16 13 10 9 9 9 11 13 15 17 18
18 18 17 17 16 16 17 18 19 20 20 21 22 22 23 22 22 22 21 21 21 21 21 22 22 21 20 20 20 18 17 16 14 14 15 14 14 14 13 15 18 19 21 24 25 25 24 23 24 28 29 28 28 29 29 30 28 23 18 17 17 15 13 11 12 12 12 18 20 17 13 11 11 14 17 15 16 18 16 14 11 10 9 9 12 15 17 18
19 19 19 18 18 19 19 19 20 21 21 21 22 23 23 23 23 23 22 22 22 21 21 22 23 22 21 21 19 17 17 17 15 15 16 16 15 14 14 15 18 18 20 23 25 24 20 18 20 25 29 28 29 29 31 32 27 25 22 20 20 17 16 16 16 15 14 21 25 21 15 11 13 17 19 18 18 18 18 16 14 12 11 9 11 14 17 19
19 19 20 20 20 21 21 21 21 22 23 22 22 23 23 24 24 24 23 22 22 22 21 21 22 23 23 21 16 16 18 18 17 16 17 16 16 16 15 15 17 18 20 21 21 20 19 19 21 26 29 28 30 28 29 32 28 26 24 23 23 20 21 21 18 16 16 22 26 22 18 16 18 17 15 20 20 18 18 17 16 15 13 11 12 15 17 19
19 19 21 21 22 23 23 23 23 23 24 23 22 23 23 23 24 25 24 23 22 22 21 21 21 22 24 19 12 16 18 17 18 17 17 17 16 17 15 14 18 19 20 19 16 16 18 20 22 26 27 26 29 26 24 30 29 26 24 24 24 23 24 23 18 17 17 22 25 22 22 23 23 18 15 19 22 21 20 19 18 16 15 14 14 16 18 20
19 20 22 23 24 25 25 25 25 24 24 23 22 22 22 23 24 25 25 22 21 22 21 21 21 20 23 19 14 17 18 16 15 16 19 19 18 18 15 14 17 21 22 21 18 15 16 20 22 25 28 27 29 26 21 25 28 25 23 24 25 26 25 24 19 19 18 22 25 24 25 26 24 21 19 20 23 23 21 19 19 17 17 17 16 17 18 19
21 22 23 25 26 27 27 26 26 26 25 23 20 21 22 23 24 26 25 22 23 23 22 21 20 20 21 18 17 19 18 17 17 19 22 20 20 19 16 15 17 21 24 24 23 18 15 20 25 28 30 29 27 27 22 22 26 24 21 24 27 28 26 25 20 20 19 21 27 28 27 25 22 21 22 22 24 22 19 19 19 19 19 18 17 18 18 18
22 23 24 25 27 28 28 27 27 26 25 22 20 22 24 24 26 26 24 24 24 23 22 20 18 18 18 17 16 17 19 23 23 25 25 22 23 20 17 17 19 23 26 26 26 22 18 22 27 28 30 29 28 29 25 22 25 26 24 25 26 27 27 26 23 22 21 21 26 31 28 25 21 22 24 25 25 21 18 20 20 20 20 19 17 18 18 19
23 23 24 25 27 28 27 27 27 26 25 22 21 24 25 26 27 26 25 25 25 23 21 19 18 18 16 16 15 14 19 25 29 30 29 26 26 24 22 21 21 25 27 28 28 27 24 24 28 29 31 32 30 28 26 27 30 30 28 28 26 25 26 28 25 23 23 22 26 32 32 28 22 21 27 28 26 24 20 21 22 22 21 20 18 17 19 21
23 24 24 25 27 28 27 27 27 26 25 23 23 25 26 27 27 26 25 25 23 22 21 18 20 17 11 11 11 15 21 27 31 33 32 29 28 27 26 22 21 26 29 30 32 32 30 28 30 33 35 35 35 34 34 35 35 34 30 28 28 26 26 28 26 23 23 23 26 32 34 32 26 24 26 27 26 26 22 20 22 23 22 22 19 17 18 21
24 25 24 25 27 28 27 27 27 26 25 24 24 25 27 27 26 25 22 23 23 20 17 16 17 14 8 11 13 19 26 29 31 33 32 31 31 30 27 23 24 29 32 34 36 37 35 33 34 38 43 45 45 44 44 39 32 31 30 27 28 28 28 29 27 24 22 22 25 32 35 33 31 28 27 26 27 26 22 20 23 24 24 24 22 19 18 19
25 25 24 25 27 28 27 27 27 27 25 25 25 25 27 25 24 24 19 21 22 16 11 12 13 11 10 15 20 24 27 27 30 32 32 33 33 33 30 28 28 29 33 35 38 39 38 39 44 48 51 51 48 45 42 37 29 25 25 26 28 29 30 30 28 24 20 21 24 29 35 35 33 33 30 28 28 27 24 22 25 26 26 27 25 22 19 17
25 25 25 25 27 28 27 27 27 27 26 26 26 26 28 27 27 27 22 20 17 11 7 10 13 12 9 13 20 25 27 27 27 29 31 33 35 37 36 34 32 33 35 34 34 38 39 43 50 51 50 47 45 43 39 37 32 26 23 24 26 30 33 30 28 25 19 21 24 26 31 35 35 35 33 31 30 30 28 26 27 27 26 26 27 24 21 16
25 25 26 25 26 27 27 27 27 27 26 26 26 26 27 28 29 30 29 23 12 6 7 8 11 13 9 9 13 18 24 26 26 26 30 33 37 39 39 37 36 35 35 32 33 37 41 48 52 49 46 44 42 41 39 36 34 32 28 26 26 29 31 30 29 27 21 22 26 25 27 31 33 35 35 36 36 35 32 29 29 29 27 26 26 26 23 20
24 26 26 25 26 26 26 26 26 26 26 25 25 25 25 27 28 28 29 25 10 3 6 7 9 14 10 10 12 12 16 21 25 27 28 33 38 39 39 40 38 36 35 36 39 41 43 49 51 47 44 44 42 40 39 37 35 36 34 32 32 31 28 29 31 29 25 24 26 26 27 28 29 31 35 38 40 38 36 32 29 29 28 25 25 25 25 22
25 26 26 26 25 26 26 26 25 25 25 25 23 23 24 24 27 26 25 23 11 6 6 5 8 13 12 13 18 15 10 13 20 28 28 32 37 39 40 41 39 38 38 38 39 43 46 45 44 46 45 43 42 41 39 37 37 38 38 37 37 33 29 29 28 27 28 28 27 24 24 29 31 30 34 38 39 40 39 35 30 30 29 26 26 27 27 24
26 25 26 26 25 25 26 25 24 23 23 24 22 22 22 22 25 24 22 21 10 7 7 9 10 12 12 15 21 18 8 5 11 23 27 29 34 37 40 40 40 41 40 39 38 41 46 40 32 39 48 45 41 42 40 39 38 39 42 43 39 34 31 28 26 24 25 27 29 21 15 23 30 31 34 37 40 42 41 39 36 33 31 31 31 30 30 27
27 26 25 26 24 24 26 25 23 22 22 22 21 21 20 21 23 21 21 18 7 4 8 11 12 12 13 17 22 18 6 2 6 14 23 29 35 36 38 40 41 42 41 39 37 40 45 41 26 24 39 46 41 41 42 39 36 39 46 46 40 36 32 29 28 23 19 22 28 22 13 18 26 27 31 37 41 44 44 43 41 38 35 33 33 32 32 29
28 26 25 25 25 25 25 26 24 23 23 21 21 21 18 19 20 18 17 10 4 7 11 11 13 15 16 18 20 17 10 4 5 13 18 28 39 39 39 42 40 39 39 36 37 41 42 43 35 20 23 40 45 45 44 40 37 43 47 43 39 37 34 32 30 23 19 23 27 24 18 19 26 26 26 34 42 45 47 47 44 42 39 35 32 33 32 29
29 27 25 25 25 25 25 25 24 23 23 22 22 21 18 18 18 15 10 3 4 12 15 14 14 18 17 14 14 12 12 13 5 9 13 22 36 38 39 43 39 36 37 36 40 44 41 43 45 31 22 33 45 49 46 40 39 42 40 36 39 38 35 35 31 26 25 25 26 31 25 15 22 29 25 29 43 48 50 51 46 44 42 38 35 34 32 29
29 28 25 24 24 24 25 25 24 24 22 22 22 20 18 16 15 13 6 2 6 13 17 18 16 20 19 12 12 10 9 13 13 10 8 15 29 34 36 38 37 33 34 39 42 42 40 41 42 39 34 33 35 41 45 43 40 38 31 27 31 33 35 37 31 29 27 21 25 38 32 13 17 32 27 26 44 51 50 51 48 45 43 39 37 36 34 30
29 28 26 24 23 23 24 23 22 21 20 20 20 18 17 15 13 8 1 3 11 15 18 20 19 21 22 14 13 12 11 12 16 14 8 10 21 31 33 31 32 31 30 36 40 40 38 32 32 39 43 39 30 28 37 43 40 35 28 23 21 24 30 33 31 30 22 16 28 42 38 20 14 29 32 29 40 46 46 49 48 46 44 41 40 38 36 33
30 28 25 24 23 24 24 21 18 18 18 19 18 16 14 12 9 2 1 7 13 17 21 23 23 23 23 20 14 12 12 14 16 12 7 2 10 24 28 22 24 30 31 33 37 41 37 27 26 33 37 38 36 30 29 34 39 36 28 24 21 19 23 24 26 27 15 10 29 42 40 28 18 28 37 30 32 38 43 47 47 46 43 42 42 40 38 34
30 28 25 23 23 24 25 23 21 20 20 19 17 15 10 7 4 2 5 11 11 17 23 25 26 24 21 22 20 13 13 17 16 11 14 14 7 4 6 6 10 19 29 33 32 35 38 36 30 26 25 30 36 37 32 29 36 39 33 29 22 12 12 14 12 14 10 12 30 38 33 28 28 37 42 33 30 35 42 44 43 42 40 39 40 40 39 36
29 27 25 24 23 23 23 23 23 22 21 18 14 12 9 3 2 5 10 13 13 18 22 23 24 23 18 20 24 19 14 16 14 7 13 17 12 12 11 3 10 10 17 27 27 27 30 35 37 32 27 27 32 39 38 33 35 39 38 35 24 9 5 7 5 5 6 13 30 39 29 22 26 36 41 38 34 33 38 44 42 37 36 34 33 36 38 36
29 27 25 24 22 21 21 21 21 20 19 16 11 10 9 4 3 7 10 12 15 18 19 21 23 20 17 19 23 22 17 14 12 11 14 18 14 15 15 4 8 5 8 15 20 24 24 26 36 42 37 33 34 38 38 36 36 38 41 39 32 23 14 7 4 3 4 9 24 33 22 11 17 30 36 36 33 30 34 43 45 40 37 34 30 34 38 36
28 26 25 22 19 19 20 18 19 18 16 13 10 9 9 6 5 9 10 11 15 16 16 20 21 18 18 19 19 20 20 17 15 15 16 16 16 16 17 14 8 7 5 3 7 14 24 30 36 40 40 37 35 36 37 36 34 36 40 40 40 42 29 11 5 8 8 7 15 23 16 7 14 26 31 30 30 29 30 38 48 47 44 43 41 41 40 36
25 26 25 21 17 18 19 16 16 17 14 12 9 8 8 6 6 9 10 12 14 15 16 19 20 18 19 20 18 20 22 20 18 17 15 13 12 11 15 18 15 12 14 13 10 5 10 28 34 30 35 41 39 36 37 39 35 33 39 45 46 46 36 19 11 12 11 8 12 20 17 12 14 18 24 27 27 27 27 31 44 51 49 49 49 47 43 39
24 25 25 20 17 19 19 15 16 17 14 11 7 6 6 4 5 8 11 13 14 15 17 18 16 15 17 18 18 22 25 22 19 18 16 11 8 9 13 16 15 12 18 21 10 6 14 22 30 28 29 38 40 36 34 39 39 34 38 47 44 36 34 28 14 7 8 6 8 16 17 16 17 16 21 28 28 27 25 24 34 46 50 50 49 47 43 40
24 24 22 19 20 22 21 17 15 15 12 10 7 5 3 2 4 7 10 12 12 14 16 14 12 12 16 17 17 19 22 21 20 20 16 10 5 6 14 17 15 13 13 17 11 8 17 19 23 32 30 31 36 37 33 36 41 38 36 39 36 28 28 30 19 7 6 4 4 9 15 19 23 21 20 27 32 30 27 24 26 35 44 47 46 44 42 41
23 22 20 19 21 23 23 19 15 11 8 7 5 3 1 1 5 8 10 10 9 11 13 12 11 11 14 16 13 14 17 18 19 18 14 10 8 8 15 19 15 13 14 15 16 14 11 9 12 27 32 29 33 40 40 37 39 43 38 31 34 35 30 30 25 13 7 4 3 5 7 15 27 29 23 24 30 32 31 29 28 29 34 41 43 41 41 42
23 23 22 21 23 23 22 18 12 8 7 6 4 3 2 1 7 11 12 12 10 10 9 10 12 13 14 13 8 10 15 15 16 17 14 14 13 11 12 16 16 16 17 16 15 15 10 8 10 19 29 28 29 36 45 45 39 43 44 34 35 38 31 27 27 23 15 4 2 4 4 14 29 32 27 24 27 31 31 31 32 32 31 34 36 36 37 38
22 24 25 25 24 23 18 13 7 9 10 8 6 4 3 1 7 11 11 13 12 9 9 10 12 12 12 10 7 9 13 14 17 18 15 12 12 11 12 16 21 22 20 18 13 14 15 15 15 17 22 26 31 33 39 44 38 39 44 41 39 36 29 19 14 24 28 13 5 4 5 19 30 30 29 29 28 31 33 32 33 35 35 33 31 31 32 33
21 23 27 28 26 22 15 8 5 11 12 8 5 3 2 1 5 8 8 10 9 8 10 12 12 11 9 7 7 8 11 16 18 14 11 11 12 15 17 20 23 23 22 22 16 13 15 15 14 21 24 26 37 36 32 34 34 33 37 42 42 37 34 25 12 19 28 19 14 7 6 24 35 28 27 28 27 30 33 37 37 37 38 36 32 32 32 32
20 20 24 28 28 22 14 8 4 9 12 9 5 2 1 3 4 6 6 8 7 7 9 11 11 10 8 6 7 9 11 14 14 11 12 14 15 17 19 20 20 21 21 19 13 10 11 11 13 18 24 29 40 39 30 28 25 23 27 38 42 39 40 39 27 23 23 20 21 10 7 26 30 20 22 22 18 20 23 31 38 40 43 40 36 35 33 32
21 19 22 27 26 20 16 13 7 6 11 12 9 5 3 4 4 4 5 7 7 8 9 9 9 8 6 6 9 11 11 10 11 14 16 16 16 16 17 18 18 18 17 14 12 12 10 10 15 14 12 18 28 29 26 24 19 17 19 28 41 44 43 41 35 27 21 25 29 14 11 30 26 13 20 21 18 18 16 19 27 35 44 47 43 40 36 33
25 21 22 25 22 19 21 18 12 7 8 12 14 12 9 6 4 3 3 4 4 6 8 7 7 6 6 7 11 13 11 9 11 15 17 16 17 16 16 17 17 16 16 14 11 11 11 12 14 11 5 8 11 11 11 11 12 16 18 22 35 45 45 40 33 26 20 25 32 24 24 41 36 20 20 21 21 22 18 22 27 27 37 47 49 48 43 36
28 26 25 24 17 15 20 18 13 10 7 7 10 12 12 10 7 5 4 4 4 6 7 6 5 6 6 8 12 13 11 9 9 12 16 17 17 17 16 15 17 15 13 12 10 10 13 14 14 14 13 14 17 12 6 6 13 17 19 20 29 38 45 44 34 29 28 23 28 34 36 44 45 34 23 20 22 22 22 27 26 24 31 40 47 51 48 39
27 27 28 26 17 13 17 15 10 9 7 6 5 5 8 8 6 5 5 5 5 6 7 6 5 5 7 9 12 14 13 11 12 13 15 16 16 16 15 13 14 13 10 11 13 13 13 13 8 11 16 19 25 22 15 13 18 16 15 18 25 28 38 47 41 37 36 24 23 34 37 39 46 40 27 24 25 27 30 26 19 24 29 34 39 42 41 37
25 25 27 27 21 17 17 14 10 8 6 5 4 4 5 5 5 5 6 6 5 7 10 10 9 8 8 9 11 14 15 15 15 15 15 16 17 18 17 13 10 9 11 14 15 13 15 14 7 13 22 22 21 23 20 17 17 14 13 17 22 22 28 43 47 44 41 32 29 35 34 36 43 39 32 32 30 29 32 23 19 24 27 31 34 33 33 34
24 23 24 24 21 17 16 14 11 9 7 6 4 4 4 5 6 6 7 9 9 10 12 13 12 11 11 11 12 14 15 16 18 19 17 18 19 20 20 17 10 8 12 16 16 13 14 12 8 18 26 18 12 15 15 14 14 12 14 16 21 22 22 36 47 46 44 42 38 37 34 35 39 36 34 34 29 27 28 18 22 24 24 28 32 33 32 33
24 24 23 22 20 16 13 13 11 9 8 6 5 5 5 6 8 9 8 10 12 11 12 13 14 14 14 14 14 15 15 15 18 20 19 19 22 21 21 20 15 11 12 15 15 13 12 11 10 20 23 9 9 11 15 14 10 7 5 7 20 23 23 32 43 45 44 42 38 36 36 36 36 34 32 29 25 26 22 15 24 23 22 27 31 33 33 33
24 24 23 22 21 17 13 12 11 10 9 8 7 7 7 7 9 11 11 10 10 10 11 11 13 14 14 14 15 15 15 15 17 20 19 20 22 21 20 20 19 15 12 13 15 15 14 12 11 20 20 6 5 9 18 19 11 3 4 7 17 20 22 32 40 42 42 42 39 37 33 32 32 33 33 29 25 24 19 17 24 23 23 27 29 32 33 33
22 23 23 21 20 19 15 13 12 12 12 11 9 9 10 10 9 10 12 11 9 8 8 10 12 13 12 14 15 15 15 16 18 19 19 19 19 20 20 20 19 16 13 13 16 16 15 14 13 18 16 9 4 7 15 13 7 1 9 12 15 15 20 31 34 37 41 40 35 29 24 25 29 31 31 29 27 24 19 18 24 24 25 26 26 28 29 30
Wind_Direction
328 326 325 324 322 321 319 318 317 315 314 312 310 308 306 304 304 303 302 302 300 298 294 290 285 283 284 284 284 281 279 277 274 279 275 246 224 217 210 213 218 215 213 209 208 208 208 208 208 211 212 210 205 198 195 191 202 215 215 198 175 154 150 137 105 84 62 310 194 164 186 183 175 183 189 185 178 186 177 156 167 180 188 196 198 202 185 171
330 328 327 325 323 322 320 318 316 315 313 312 311 308 306 304 302 300 298 298 297 297 294 292 289 285 282 281 281 278 277 277 277 278 262 248 233 223 215 216 218 213 213 212 209 209 209 210 211 213 214 212 206 200 197 198 208 215 221 197 168 147 144 136 111 88 46 305 214 166 183 183 178 191 188 180 182 191 188 173 175 185 192 186 185 196 186 175
333 331 329 327 325 323 321 319 317 315 314 312 311 308 306 303 302 300 298 296 294 293 292 292 290 288 284 280 279 278 276 277 279 265 250 253 247 235 221 221 222 215 212 213 210 210 210 211 215 217 216 213 206 204 199 202 211 213 223 195 156 138 144 140 120 104 54 290 233 196 179 181 188 197 186 176 187 201 203 194 187 189 193 183 182 192 188 180
337 335 333 331 330 327 324 322 319 317 315 313 311 308 306 303 301 300 298 296 294 291 289 289 288 288 286 281 278 277 278 278 279 266 253 250 245 244 228 224 227 218 208 209 207 205 206 208 212 216 218 214 206 205 201 202 210 213 217 181 147 139 146 143 127 121 117 191 242 219 189 179 185 192 189 187 192 205 216 213 214 215 206 192 181 188 189 184
345 342 340 339 337 335 332 329 326 323 320 317 314 310 306 303 301 299 298 296 293 291 287 286 285 285 284 282 278 277 279 284 282 268 248 235 233 240 233 223 226 220 209 209 208 203 202 205 208 210 214 213 207 207 204 203 210 214 203 162 148 145 141 145 144 139 165 204 231 232 216 192 189 188 195 201 198 231 352 231 220 237 226 215 189 186 190 188
351 348 347 345 343 342 340 337 334 331 328 325 321 316 311 307 303 300 297 295 293 290 287 285 283 281 281 279 278 275 275 276 267 250 218 208 221 231 228 218 217 216 210 209 211 209 204 204 207 208 209 208 209 211 206 205 212 214 199 169 162 153 148 153 162 184 202 216 231 232 230 218 209 194 204 212 60 333 342 307 215 210 217 220 205 189 190 190
353 351 350 348 347 346 344 343 341 338 335 331 327 323 318 313 309 304 299 295 293 289 286 284 281 279 278 276 276 273 271 262 254 254 245 231 233 233 224 211 208 209 209 209 211 212 209 208 208 208 208 206 208 211 204 206 213 216 201 178 170 162 159 157 162 214 222 215 225 220 210 223 227 216 218 217 191 255 265 236 202 190 196 204 205 197 194 193
352 352 351 350 350 349 349 349 346 344 341 337 333 329 325 319 316 312 305 299 293 289 286 282 279 278 276 274 273 272 269 261 255 258 258 250 242 236 224 211 208 207 208 211 215 217 215 214 212 209 209 207 207 207 200 204 214 216 201 181 180 173 161 160 171 211 233 219 219 229 220 224 233 241 250 235 212 234 241 223 208 192 188 197 205 204 199 195
348 349 348 349 350 350 350 349 348 346 344 341 337 334 330 325 322 318 312 305 298 291 286 281 278 275 274 273 271 270 270 264 258 252 245 242 238 231 221 215 216 211 208 210 213 219 220 220 217 214 213 210 208 204 198 205 214 214 201 189 194 184 168 179 190 200 227 222 223 242 241 228 225 230 244 240 222 229 235 234 225 211 200 197 203 205 203 199
345 345 345 346 345 345 345 344 343 340 340 339 335 334 330 328 327 322 318 312 305 297 289 282 277 274 272 270 268 270 269 264 257 248 241 236 231 224 211 213 218 213 210 210 211 216 221 224 223 221 218 213 211 206 200 207 214 213 208 205 205 200 195 208 216 215 226 222 224 243 245 231 221 219 227 230 227 231 236 237 234 230 220 208 202 200 204 204
343 342 341 341 339 338 337 337 337 333 333 333 332 332 328 327 326 322 320 316 311 304 295 287 279 275 271 267 268 268 265 263 256 243 239 233 228 221 203 205 216 213 210 212 215 219 221 224 222 220 217 214 213 208 205 209 214 214 215 217 210 211 218 222 232 236 239 226 223 238 240 223 217 218 222 224 228 231 235 239 238 235 228 219 208 199 201 203
341 340 338 337 335 333 332 332 332 330 329 329 330 330 327 327 326 323 321 318 315 311 304 295 284 278 271 267 269 263 255 255 251 236 233 230 224 222 209 203 208 210 210 211 216 219 221 221 218 216 214 213 211 208 208 210 213 214 218 223 213 218 228 222 231 242 246 230 220 230 228 218 223 224 221 222 230 234 236 243 240 238 233 220 211 203 200 200
340 340 337 336 333 332 330 329 329 328 325 327 329 328 325 327 326 326 325 322 320 314 309 302 292 282 272 268 262 254 248 247 248 237 231 230 224 225 225 212 203 204 207 207 211 217 222 222 220 217 213 212 208 206 209 208 213 216 218 225 219 230 229 211 224 242 248 236 220 222 221 222 229 228 223 223 228 232 237 243 238 239 235 221 214 208 201 199
340 340 338 337 334 331 330 328 328 326 324 326 328 326 324 326 329 330 330 330 329 321 314 307 300 288 274 267 250 243 243 244 244 229 224 228 225 222 226 227 214 206 201 197 198 206 219 222 221 216 211 211 207 205 205 202 211 216 220 228 229 241 228 201 219 240 244 239 226 225 228 230 231 226 225 224 226 231 238 242 234 236 236 224 217 210 204 201
339 338 337 336 334 332 331 329 327 326 325 326 327 323 322 327 329 330 333 337 337 328 317 309 302 291 279 271 253 241 235 232 228 219 219 222 222 222 225 237 233 215 200 191 192 195 207 216 216 212 207 208 206 203 201 195 202 209 222 232 231 240 227 203 219 232 236 238 229 227 231 235 233 225 224 224 226 231 237 239 233 233 234 229 219 211 205 200
336 336 335 334 332 332 331 328 327 326 324 325 324 320 322 327 327 329 336 339 335 325 316 312 301 289 283 275 257 240 227 222 221 219 220 218 215 219 225 232 231 216 200 189 189 190 198 210 213 212 204 202 203 202 204 208 207 204 217 230 229 235 231 220 220 220 227 234 229 227 227 233 232 223 223 225 226 230 236 238 234 234 233 229 221 212 207 201
334 334 333 332 331 331 330 327 325 324 322 321 319 319 321 324 325 330 337 337 331 322 316 311 297 289 283 271 254 235 223 217 218 219 219 219 213 211 217 225 225 214 198 188 189 190 196 205 208 207 202 201 202 203 213 225 217 206 212 225 226 227 232 234 226 215 222 232 231 227 226 232 234 225 223 225 227 229 238 240 234 232 230 225 221 216 212 207
332 332 332 332 330 329 330 326 323 323 321 318 316 318 320 322 325 328 334 337 331 323 319 310 300 302 287 252 233 225 221 213 215 217 216 218 215 210 213 220 219 206 195 190 190 191 195 201 204 205 203 203 203 205 214 218 212 207 211 221 225 225 227 231 229 218 220 234 233 224 224 230 234 233 228 228 229 230 237 242 232 228 226 223 223 223 219 213
329 331 332 332 330 329 330 326 324 324 322 319 317 318 317 318 319 320 335 344 335 334 335 322 313 315 287 240 226 230 228 213 210 214 212 212 211 209 209 207 202 196 193 193 193 192 194 198 201 205 206 204 202 204 210 212 209 211 217 221 224 226 226 225 226 220 223 240 236 223 224 228 227 231 233 231 230 230 234 236 228 224 224 225 227 227 225 221
328 330 333 334 332 331 331 327 326 325 324 322 317 316 314 314 314 315 345 359 341 344 355 340 335 328 288 252 238 237 236 220 211 211 209 206 204 204 203 198 192 193 196 196 195 194 195 200 203 205 206 204 203 204 211 215 212 215 224 228 226 228 228 222 220 220 227 244 241 228 228 229 227 228 233 234 229 227 229 228 226 225 223 225 229 228 229 229
330 332 334 337 335 333 332 329 329 328 327 324 321 321 320 323 325 324 346 2 345 341 349 351 359 353 316 265 242 233 231 224 214 210 209 205 201 200 200 196 191 195 199 197 197 196 199 206 208 209 208 206 205 207 214 219 217 219 226 229 229 230 229 222 217 218 226 241 242 234 231 231 229 229 231 233 231 230 231 230 229 225 221 222 226 226 227 228
334 334 335 338 337 334 332 330 330 330 327 328 327 326 327 330 332 330 336 346 346 330 326 342 1 356 335 294 265 239 228 223 212 206 208 204 201 200 198 198 197 198 198 195 198 199 204 212 213 212 210 208 209 211 214 221 222 223 226 229 230 229 229 225 217 216 223 237 238 235 235 236 235 234 233 232 236 239 240 243 238 225 219 221 222 221 220 219
334 335 336 338 339 335 332 331 331 330 328 328 326 325 328 330 331 330 329 334 339 284 312 335 356 353 338 321 310 275 241 227 206 195 204 204 200 201 200 201 202 201 198 196 199 201 206 216 216 212 212 212 213 213 215 221 224 225 227 231 230 225 228 226 217 215 223 232 236 239 243 244 242 240 236 236 241 245 245 249 247 232 227 228 223 218 214 214
332 334 334 337 340 335 331 331 331 331 326 324 323 324 329 328 328 327 322 326 322 257 285 319 338 345 341 344 337 316 284 248 205 187 197 204 201 202 203 204 205 205 204 201 203 205 209 216 217 213 213 215 215 214 216 220 224 226 225 228 231 225 223 224 218 218 224 228 235 248 255 252 248 240 235 235 238 242 244 246 243 236 235 236 231 224 218 216
327 331 332 333 339 335 330 330 329 328 323 321 322 324 326 324 323 324 319 322 311 254 291 313 322 333 335 351 350 337 322 277 204 190 197 202 202 204 205 206 208 210 209 205 208 214 215 217 219 216 213 214 217 217 216 218 223 227 225 224 227 226 222 222 221 225 237 237 233 242 261 258 251 241 235 234 231 233 238 240 240 238 237 235 231 228 222 217
323 327 330 331 336 335 329 327 327 326 322 321 320 319 323 322 323 323 318 319 305 276 314 311 310 316 324 342 347 342 329 176 173 201 210 204 202 204 205 208 211 213 213 210 214 220 218 217 219 219 216 215 216 219 218 216 223 229 226 221 223 228 224 221 228 235 249 249 236 235 252 261 258 246 236 233 230 232 233 235 239 239 237 233 226 224 223 219
324 327 332 332 334 334 328 326 327 325 322 320 316 318 323 323 325 325 318 313 306 325 329 320 310 309 322 333 333 341 344 319 185 200 217 209 203 203 205 208 211 214 214 211 218 223 220 218 217 212 217 217 215 218 218 213 219 228 228 223 224 229 221 217 232 241 244 252 249 245 248 261 265 256 243 234 228 230 231 232 236 238 237 234 224 218 220 220
329 330 335 335 334 332 329 329 328 323 321 319 316 318 320 323 326 323 319 308 310 327 329 327 316 306 310 311 309 334 344 328 289 215 225 213 205 204 207 209 209 213 214 211 219 224 221 220 218 209 211 219 218 220 218 211 218 228 231 227 226 228 221 220 236 246 246 257 262 253 248 260 267 261 257 240 225 224 228 231 235 236 235 233 225 219 217 218
334 334 338 337 333 331 331 331 327 323 322 318 315 314 316 323 323 313 309 240 300 326 328 324 322 316 311 281 262 286 306 321 327 309 271 218 209 208 210 212 211 214 218 219 223 226 225 226 223 215 214 220 222 224 221 214 217 226 231 233 231 230 227 229 241 251 251 255 258 254 249 250 266 262 257 235 222 222 227 231 233 234 234 231 226 220 217 217
338 338 340 336 333 333 332 331 328 325 322 317 314 317 320 321 316 306 257 272 311 327 327 325 332 334 332 305 260 264 285 310 320 316 290 222 215 212 210 214 216 217 221 226 229 228 228 231 230 225 222 221 222 225 224 221 220 222 227 231 235 235 232 236 245 249 251 249 247 252 250 243 259 262 254 236 230 231 229 228 230 232 234 233 228 222 218 216
340 340 341 337 335 334 331 330 328 323 319 316 314 321 323 313 307 297 163 301 315 328 331 335 340 343 345 336 305 273 278 303 317 327 340 298 218 213 211 211 220 226 227 227 229 228 227 227 228 230 231 227 226 226 227 227 223 220 222 223 228 232 228 234 240 235 234 243 244 249 251 244 240 252 252 249 247 243 234 226 225 227 230 231 230 224 220 217
340 341 341 339 337 337 334 332 332 327 321 316 315 324 325 307 310 23 344 325 329 339 339 342 345 350 353 346 334 310 290 305 319 349 12 17 47 154 201 197 218 233 232 228 226 225 225 224 222 227 233 228 226 226 224 228 225 219 218 218 217 220 219 220 223 222 222 240 243 246 250 244 240 247 250 251 252 245 235 227 222 224 226 226 227 225 220 218
340 341 341 340 340 342 341 336 335 334 330 324 323 334 342 341 2 1 350 346 345 342 340 340 347 355 358 353 346 334 313 309 308 322 357 4 26 42 40 147 196 215 231 228 225 222 224 228 226 225 229 225 222 221 217 219 221 216 212 211 208 198 204 213 205 224 233 234 241 245 248 245 243 248 246 244 248 248 240 230 224 225 226 224 226 225 222 219
339 339 339 343 344 344 344 337 334 337 336 333 336 350 2 30 15 349 351 350 344 340 338 338 345 356 5 4 355 343 330 319 310 301 325 343 359 16 29 83 190 234 249 222 217 219 217 222 224 221 222 223 222 222 219 217 219 217 212 210 213 213 209 206 185 193 203 220 238 240 237 230 235 243 244 240 241 247 246 234 227 229 230 229 230 227 223 221
338 335 336 345 347 341 342 338 332 334 334 337 352 14 22 24 360 351 350 343 342 340 336 336 344 358 7 6 359 348 340 331 319 308 316 344 359 359 9 25 27 360 335 243 240 234 222 222 224 221 221 222 223 225 223 218 218 221 214 210 217 219 215 214 225 220 204 207 234 230 220 216 241 246 245 241 238 240 245 238 229 229 231 232 232 229 227 225
336 330 334 346 345 336 339 335 328 329 326 330 352 20 26 13 349 353 348 336 336 333 328 334 347 0 3 358 353 346 340 334 326 318 321 344 358 343 347 1 5 13 19 359 336 331 251 233 221 218 222 220 220 222 220 215 213 215 212 211 217 221 218 219 237 235 215 211 231 226 220 223 238 244 237 236 239 232 235 237 229 228 230 230 230 231 232 230
336 333 336 343 338 331 332 327 320 323 318 312 327 359 13 4 341 343 338 333 332 326 326 336 349 357 354 349 345 339 338 339 334 329 330 337 348 328 321 338 346 354 14 6 347 9 332 270 221 203 215 218 217 221 222 219 215 210 210 215 216 218 222 224 229 235 210 218 238 223 217 210 211 224 226 229 235 227 223 227 226 227 229 229 230 232 235 236
342 339 335 337 333 327 325 318 310 312 307 290 290 318 344 348 326 323 328 336 335 327 331 342 348 347 345 342 337 334 338 341 338 339 345 344 352 331 308 314 326 323 344 1 354 343 336 299 227 201 207 214 212 217 223 223 221 218 219 220 211 205 215 217 218 228 211 222 267 222 215 212 211 215 215 222 230 229 221 216 218 225 229 231 232 232 235 238
343 338 331 332 333 326 323 315 298 291 286 268 267 280 254 278 305 308 320 333 338 336 337 344 343 337 339 341 336 333 337 340 341 346 351 341 330 324 308 302 303 303 316 341 347 345 350 323 240 204 202 210 210 211 216 217 218 220 224 227 218 213 213 211 212 221 215 208 251 235 221 222 226 227 222 221 227 230 226 219 216 220 226 230 231 233 236 237
341 336 330 333 337 333 329 318 291 256 231 213 195 195 194 274 297 296 306 310 315 333 338 334 336 335 338 343 342 337 337 337 340 341 337 334 332 322 306 299 291 286 300 323 340 348 355 338 283 216 198 204 208 207 213 215 212 213 216 218 217 216 216 215 218 222 226 221 183 213 252 244 239 239 235 229 226 229 229 223 220 219 223 228 228 229 232 233
344 338 332 334 340 341 338 325 275 218 212 210 200 212 207 305 296 287 298 307 307 316 322 320 328 338 346 348 341 344 346 333 327 331 333 335 340 327 305 305 301 289 294 311 330 350 347 333 303 252 218 208 207 206 210 215 215 214 214 214 214 212 206 206 217 220 223 233 226 203 279 259 249 245 244 241 235 233 231 228 224 222 223 227 227 223 221 223
350 344 335 335 341 349 357 349 261 216 212 212 210 235 232 288 303 294 300 312 308 300 302 308 322 341 354 352 338 345 350 331 320 327 334 326 327 321 310 310 306 295 300 306 311 336 338 329 306 269 246 216 204 205 206 209 214 218 219 218 217 214 208 205 206 210 211 224 244 242 289 264 252 247 249 248 240 236 234 232 231 227 226 226 224 220 215 216
355 351 338 336 343 352 5 7 299 228 219 217 204 200 237 258 302 322 321 320 318 310 308 312 324 341 352 350 341 339 338 328 319 322 325 318 318 317 313 315 307 296 301 302 301 331 338 335 326 284 254 221 205 206 205 203 210 223 227 222 218 216 216 216 218 215 204 210 227 231 272 257 246 238 245 246 237 236 235 232 232 230 228 227 223 221 216 214
354 355 345 343 347 349 352 359 346 258 234 233 225 209 216 251 286 327 341 339 335 327 324 326 333 344 348 336 329 330 332 322 308 312 317 314 315 316 313 314 309 299 295 290 299 328 329 325 335 320 274 228 213 212 215 215 220 236 240 228 221 219 220 220 220 219 215 216 218 211 244 245 234 221 237 238 231 233 238 246 246 235 229 226 224 223 222 217
350 354 355 353 352 349 351 358 357 329 268 245 242 244 248 252 263 289 319 339 329 320 320 322 333 344 337 315 311 319 328 320 305 306 310 309 310 314 313 310 308 300 286 279 294 311 297 295 312 313 276 229 228 224 224 235 240 232 226 224 222 221 220 219 216 211 214 221 216 212 235 242 241 242 241 235 231 235 254 279 275 251 229 223 223 225 226 219
347 352 357 359 359 356 356 355 349 342 327 279 257 257 263 259 252 261 267 259 267 289 303 313 332 339 327 314 313 318 326 323 305 295 298 302 305 310 312 310 310 302 283 271 266 263 271 285 296 288 269 263 273 265 229 284 279 240 219 215 218 221 222 219 214 211 215 218 216 221 234 243 248 250 237 222 228 244 277 291 275 244 223 217 219 224 226 220
350 352 355 359 3 2 358 355 347 340 337 328 301 273 274 270 262 262 248 246 279 292 291 296 305 309 315 319 318 318 321 314 301 298 301 302 304 308 309 311 313 301 273 256 247 244 265 278 288 296 293 291 287 267 238 265 277 250 231 222 214 218 221 217 214 216 218 215 218 229 234 241 250 249 235 231 245 264 285 287 253 225 219 214 214 218 221 218
351 353 354 356 358 358 356 355 354 345 333 329 319 305 296 279 279 280 252 244 282 302 296 291 287 286 296 310 314 315 317 312 304 307 313 310 308 309 309 313 314 288 260 247 241 245 266 272 291 316 307 301 284 259 248 265 271 261 278 264 232 222 222 218 216 218 221 221 226 233 233 238 247 247 246 255 265 277 284 271 219 213 218 212 211 213 213 209
351 353 354 354 355 358 357 353 356 360 350 334 316 312 301 277 280 285 277 275 280 292 301 296 290 290 292 299 308 310 311 310 305 306 313 314 310 310 311 311 308 287 262 245 238 244 260 267 306 326 315 298 257 246 252 263 269 277 302 286 243 224 220 218 216 217 223 228 233 237 237 240 247 251 257 266 269 275 279 245 195 201 212 209 209 209 206 204
350 351 350 351 355 360 360 355 356 4 1 344 321 309 293 280 278 272 284 301 296 296 305 300 292 289 287 293 302 304 303 299 296 299 306 308 305 304 306 304 301 292 262 239 235 237 244 260 309 330 324 294 203 225 232 226 253 303 325 240 220 213 213 215 213 214 221 226 230 236 238 242 248 252 258 263 263 268 270 217 184 195 205 204 205 204 202 202
349 348 344 347 355 359 4 7 1 360 2 351 331 314 297 294 290 279 285 301 304 308 310 303 299 293 289 295 299 298 296 290 287 291 294 297 296 293 293 293 294 290 262 236 232 232 238 259 307 334 327 296 184 233 228 215 224 304 54 155 189 198 202 204 205 208 215 221 226 231 236 240 244 247 253 259 260 265 260 209 188 194 200 202 203 201 201 203
347 344 339 343 353 357 1 6 360 356 358 350 340 329 313 307 306 301 303 302 302 311 305 298 301 299 301 308 302 296 295 288 287 290 291 291 288 282 282 282 282 280 263 239 233 232 241 264 307 337 324 303 326 270 233 219 220 327 48 90 130 155 183 191 195 202 209 217 223 226 232 238 241 243 248 255 258 258 245 206 193 198 203 206 207 204 202 202